Powrót do katalogu

CZ-6A DEB

AktywnySSO
NORAD 54550·DEBRIS·🇨🇳 China

Wystrzelony Nov 11, 2022 z Taiyuan Satellite Launch Center

Loading…

Następne Przeloty (najbliższe 24 godziny)

TLE

ŚwieżeSource: Space-Track

Epoka: Sep 14, 2026, 09:31 UTC

1 54550U 22151LA  26257.39680179  .00000589  00000-0  20646-3 0  9998
2 54550  98.6577 296.2040 0065790  47.7926 312.8819 14.37532016200846

Śledź CZ-6A DEB w czasie rzeczywistym z AllMySat

Download on the App Store